When you browse on this site, cookies collect data to enhance your experience and personalize the content and advertising you see.
Visit our Privacy Policy to learn more. By continuing to use the site, you agree to this use of cookies and data.
  • In Spain
  • List of Countries
  • For 7 days
  • Water Temperature
  • Weather Map
  • Weather Widgets
  • user-avatar
    Login

    Hourly Weather Calgari

    Today, 17 February, Monday

    Time Temperature Precipitation Wind Pressure Humidity
    00:00 +9°C° 0 mm 1 mps 770 mmHg 85%
    01:00 +9°C° 0 mm 1 mps 770 mmHg 85%
    02:00 +9°C° 0 mm 1 mps 770 mmHg 85%
    03:00 +9°C° 0 mm 1 mps 769 mmHg 85%
    04:00 +9°C° 0 mm 1 mps 769 mmHg 84%
    05:00 +8°C° 0 mm 1 mps 769 mmHg 83%
    06:00 +8°C° 0 mm 1 mps 769 mmHg 82%
    07:00 +8°C° 0 mm 1 mps 769 mmHg 82%
    08:00 +10°C° 0 mm 1 mps 769 mmHg 74%
    09:00 +13°C° 0 mm 2 mps 769 mmHg 66%
    10:00 +15°C° 0 mm 2 mps 769 mmHg 58%
    11:00 +16°C° 0 mm 2 mps 769 mmHg 56%
    12:00 +17°C° 0 mm 2 mps 769 mmHg 54%
    13:00 +18°C° 0 mm 2 mps 768 mmHg 52%
    14:00 +17°C° 0 mm 3 mps 768 mmHg 55%
    15:00 +17°C° 0 mm 3 mps 767 mmHg 58%
    16:00 +16°C° 0 mm 3 mps 767 mmHg 60%
    17:00 +13°C° 0 mm 3 mps 767 mmHg 67%
    18:00 +13°C° 0 mm 2 mps 767 mmHg 73%
    19:00 +10°C° 0 mm 2 mps 767 mmHg 79%
    20:00 +10°C° 0 mm 2 mps 767 mmHg 79%
    21:00 +9°C° 0 mm 2 mps 767 mmHg 79%
    22:00 +9°C° 0 mm 2 mps 767 mmHg 78%
    23:00 +9°C° 0 mm 2 mps 767 mmHg 79%

    Tomorrow, 18 February, Tuesday

    Time Temperature Precipitation Wind Pressure Humidity
    00:00 +9°C° 0 mm 2 mps 767 mmHg 80%
    01:00 +9°C° 0 mm 3 mps 767 mmHg 81%
    02:00 +9°C° 0 mm 3 mps 767 mmHg 78%
    03:00 +8°C° 0 mm 4 mps 767 mmHg 75%
    04:00 +8°C° 0 mm 4 mps 766 mmHg 73%
    05:00 +8°C° 0 mm 4 mps 766 mmHg 75%
    06:00 +8°C° 0 mm 4 mps 766 mmHg 77%
    07:00 +8°C° 0 mm 4 mps 766 mmHg 80%
    08:00 +11°C° 0 mm 4 mps 767 mmHg 76%
    09:00 +13°C° 0 mm 4 mps 767 mmHg 73%
    10:00 +15°C° 0 mm 4 mps 767 mmHg 69%
    11:00 +16°C° 0 mm 5 mps 767 mmHg 62%
    12:00 +17°C° 0 mm 6 mps 767 mmHg 55%
    13:00 +19°C° 0 mm 6 mps 767 mmHg 48%
    14:00 +18°C° 0 mm 7 mps 767 mmHg 49%
    15:00 +17°C° 0 mm 7 mps 766 mmHg 49%
    16:00 +16°C° 0 mm 8 mps 766 mmHg 49%
    17:00 +13°C° 0 mm 8 mps 766 mmHg 58%
    18:00 +10°C° 0 mm 7 mps 766 mmHg 67%
    19:00 +8°C° 0 mm 7 mps 766 mmHg 76%
    20:00 +8°C° 0 mm 7 mps 767 mmHg 78%
    21:00 +6°C° 0 mm 7 mps 767 mmHg 80%
    22:00 +5°C° 0 mm 6 mps 767 mmHg 82%
    23:00 +5°C° 0 mm 6 mps 767 mmHg 83%

    Day after tomorrow, 19 February, Wednesday

    Time Temperature Precipitation Wind Pressure Humidity
    00:00 +5°C° 0 mm 6 mps 767 mmHg 83%
    01:00 +5°C° 0 mm 6 mps 767 mmHg 84%
    02:00 +5°C° 0 mm 6 mps 767 mmHg 84%
    03:00 +5°C° 0 mm 6 mps 766 mmHg 85%
    04:00 +5°C° 0 mm 6 mps 766 mmHg 85%
    05:00 +5°C° 0 mm 6 mps 766 mmHg 85%
    06:00 +5°C° 0 mm 6 mps 766 mmHg 84%
    07:00 +5°C° 0 mm 6 mps 766 mmHg 83%
    08:00 +8°C° 0 mm 6 mps 766 mmHg 76%
    09:00 +10°C° 0 mm 7 mps 767 mmHg 69%
    10:00 +12°C° 0 mm 7 mps 767 mmHg 62%
    11:00 +13°C° 0 mm 8 mps 767 mmHg 59%
    12:00 +13°C° 0 mm 8 mps 767 mmHg 56%
    13:00 +15°C° 0 mm 9 mps 767 mmHg 53%
    14:00 +15°C° 0 mm 9 mps 766 mmHg 54%
    15:00 +13°C° 0 mm 9 mps 766 mmHg 55%
    16:00 +13°C° 0 mm 9 mps 765 mmHg 56%
    17:00 +11°C° 0 mm 9 mps 765 mmHg 64%
    18:00 +10°C° 0 mm 9 mps 765 mmHg 71%
    19:00 +7°C° 0 mm 8 mps 765 mmHg 78%
    20:00 +7°C° 0 mm 8 mps 765 mmHg 79%
    21:00 +8°C° 0 mm 7 mps 765 mmHg 80%
    22:00 +8°C° 0 mm 7 mps 766 mmHg 81%
    23:00 +8°C° 0 mm 7 mps 765 mmHg 82%

    20 February, Thursday

    Time Temperature Precipitation Wind Pressure Humidity
    00:00 +8°C° 0 mm 6 mps 765 mmHg 82%
    01:00 +8°C° 0 mm 6 mps 765 mmHg 82%
    02:00 +8°C° 0 mm 6 mps 765 mmHg 83%
    03:00 +9°C° 0 mm 5 mps 765 mmHg 83%
    04:00 +9°C° 0 mm 5 mps 764 mmHg 83%
    05:00 +9°C° 0 mm 5 mps 764 mmHg 85%
    06:00 +8°C° 0 mm 5 mps 764 mmHg 87%
    07:00 +8°C° 0 mm 5 mps 764 mmHg 89%
    08:00 +10°C° 0 mm 5 mps 765 mmHg 82%
    09:00 +12°C° 0 mm 5 mps 765 mmHg 75%
    10:00 +14°C° 0 mm 5 mps 765 mmHg 68%
    11:00 +14°C° 0 mm 5 mps 765 mmHg 65%
    12:00 +15°C° 0 mm 5 mps 765 mmHg 63%
    13:00 +15°C° 0 mm 5 mps 765 mmHg 60%
    14:00 +15°C° 0 mm 5 mps 765 mmHg 62%
    15:00 +15°C° 0 mm 5 mps 764 mmHg 63%
    16:00 +15°C° 0 mm 6 mps 764 mmHg 64%
    17:00 +13°C° 0 mm 5 mps 765 mmHg 71%
    18:00 +12°C° 0 mm 4 mps 765 mmHg 77%
    19:00 +10°C° 0 mm 3 mps 765 mmHg 84%
    20:00 +10°C° 0 mm 3 mps 765 mmHg 85%
    21:00 +9°C° 0 mm 3 mps 765 mmHg 87%
    22:00 +8°C° 0 mm 2 mps 766 mmHg 89%
    23:00 +8°C° 0 mm 2 mps 766 mmHg 89%

    21 February, Friday

    Time Temperature Precipitation Wind Pressure Humidity
    00:00 +8°C° 0 mm 2 mps 766 mmHg 89%
    01:00 +8°C° 0 mm 2 mps 766 mmHg 90%
    02:00 +7°C° 0 mm 2 mps 766 mmHg 90%
    03:00 +7°C° 0 mm 2 mps 766 mmHg 90%
    04:00 +7°C° 0 mm 2 mps 766 mmHg 90%
    05:00 +7°C° 0 mm 2 mps 766 mmHg 90%
    06:00 +7°C° 0 mm 2 mps 766 mmHg 90%
    07:00 +6°C° 0 mm 2 mps 766 mmHg 90%
    14:00 +17°C° 0 mm 2 mps 767 mmHg 56%
    15:00 +17°C° 0 mm 2 mps 767 mmHg 60%
    16:00 +16°C° 0 mm 2 mps 767 mmHg 64%
    17:00 +14°C° 0 mm 2 mps 768 mmHg 72%
    18:00 +12°C° 0 mm 1 mps 768 mmHg 80%
    19:00 +11°C° 0 mm 1 mps 768 mmHg 88%
    20:00 +10°C° 0 mm 1 mps 769 mmHg 89%
    21:00 +10°C° 0 mm 1 mps 769 mmHg 90%
    22:00 +9°C° 0 mm 1 mps 769 mmHg 91%
    23:00 +9°C° 0 mm 1 mps 769 mmHg 91%

    22 February, Saturday

    Time Temperature Precipitation Wind Pressure Humidity
    00:00 +9°C° 0 mm 1 mps 769 mmHg 91%
    01:00 +9°C° 0 mm 1 mps 769 mmHg 91%
    02:00 +9°C° 0 mm 1 mps 770 mmHg 91%
    03:00 +8°C° 0 mm 1 mps 770 mmHg 91%
    04:00 +8°C° 0 mm 1 mps 770 mmHg 91%
    05:00 +8°C° 0 mm 1 mps 770 mmHg 91%
    06:00 +8°C° 0 mm 1 mps 770 mmHg 91%
    07:00 +8°C° 0 mm 1 mps 770 mmHg 91%
    08:00 +10°C° 0 mm 1 mps 770 mmHg 85%
    09:00 +12°C° 0 mm 1 mps 771 mmHg 79%
    10:00 +15°C° 0 mm 1 mps 772 mmHg 72%
    11:00 +15°C° 0 mm 1 mps 772 mmHg 70%
    12:00 +16°C° 0 mm 1 mps 772 mmHg 68%
    13:00 +16°C° 0 mm 2 mps 772 mmHg 66%
    14:00 +16°C° 0 mm 2 mps 772 mmHg 67%
    15:00 +16°C° 0 mm 2 mps 772 mmHg 69%
    16:00 +15°C° 0 mm 1 mps 772 mmHg 70%
    17:00 +14°C° 0 mm 1 mps 772 mmHg 75%
    18:00 +13°C° 0 mm 1 mps 772 mmHg 81%
    19:00 +11°C° 0 mm 1 mps 772 mmHg 87%
    20:00 +11°C° 0 mm 1 mps 773 mmHg 87%
    21:00 +10°C° 0 mm 1 mps 773 mmHg 88%
    22:00 +10°C° 0 mm 1 mps 773 mmHg 89%
    23:00 +9°C° 0 mm 1 mps 773 mmHg 89%
    Show more